Date String (YYYY-MM-DD hh:mm:ss) UTC,Instrument flags,absolute air pressure of the measurement (hPa),sample flow rate (lpm),inlet stack bypass flow (lpm),air temperature of the measurement (°C),ambient temperature measured by the external sensor (°C),aerosol sample conditioner tube jacket temperature (°C),OPC LED temperature (°C),internal box temperature (°C),relative humidity of the measurement (%),span deviation,mass concentration of particles derived from Lorenz-Mie calculation of OPC scattering (μg/m³),mass concentration of particles derived from Lorenz-Mie calculation of OPC scattering (μg/m³),mass concentration of particles derived from Lorenz-Mie calculation of OPC scattering (μg/m³)
DateTimeUTC,F1_M11,P_M11,Q1_M11,Q2_M11,T1_M11,T2_M11,T3_M11,T4_M11,T5_M11,U1_M11,ZSPAN_M11,X0_M11,X2_M11,X1_M11
2023-10-11 14:00:00,SystemResetWarning,0817.1,5.00,000.00,028.8,026.7,000.0,037.4,030.3,13.0,0000.0,0007.38,0003.26,0002.69
2023-10-11 14:01:00,SystemResetWarning,0817.1,4.99,000.00,028.8,026.8,000.0,037.4,030.3,13.0,0000.0,0007.42,0003.30,0002.73
2023-10-11 14:02:00,SystemResetWarning,0817.1,5.00,000.00,028.8,026.9,000.0,037.4,030.4,13.1,0000.0,0006.95,0003.32,0002.77
2023-10-11 14:03:00,SystemResetWarning,0817.1,5.00,000.00,028.8,027.0,000.0,037.4,030.4,13.1,0000.0,0007.09,0003.35,0002.79
2023-10-11 14:04:00,SystemResetWarning,0817.1,5.00,000.00,028.8,027.1,000.0,037.4,030.4,13.1,0000.0,0007.12,0003.36,0002.81
2023-10-11 14:05:00,SystemResetWarning,0817.1,5.00,000.00,028.8,027.2,000.0,037.4,030.4,13.1,0000.0,0007.20,0003.37,0002.81
2023-10-11 14:06:00,SystemResetWarning,0817.1,5.00,000.00,028.8,027.3,000.0,037.3,030.5,13.2,0000.0,0007.24,0003.38,0002.84
2023-10-11 14:07:00,SystemResetWarning,0817.1,5.00,000.00,028.8,027.3,000.0,037.3,030.5,13.2,0000.0,0007.21,0003.40,0002.89
2023-10-11 14:08:00,SystemResetWarning,0817.1,5.00,000.00,028.8,027.4,000.0,037.3,030.5,13.2,0000.0,0007.29,0003.44,0002.94
2023-10-11 14:09:00,SystemResetWarning,0817.1,4.99,000.00,028.9,027.4,000.0,037.3,030.5,13.2,0000.0,0006.61,0003.50,0002.99
2023-10-11 14:10:00,SystemResetWarning,0817.1,4.99,000.00,028.9,027.4,000.0,037.3,030.5,13.1,0000.0,0006.19,0003.50,0003.02
2023-10-11 14:11:00,SystemResetWarning,0817.1,5.01,000.00,028.9,027.5,000.0,037.3,030.5,13.2,0000.0,0006.08,0003.48,0003.00
2023-10-11 14:12:00,SystemResetWarning,0817.1,5.01,000.00,028.9,027.5,000.0,037.4,030.6,13.2,0000.0,0006.45,0003.46,0002.95
2023-10-11 14:13:00,SystemResetWarning,0817.1,5.00,000.00,028.9,027.5,000.0,037.4,030.6,13.1,0000.0,0007.50,0003.42,0002.89
2023-10-11 14:14:00,SystemResetWarning,0817.1,5.01,000.00,028.9,027.6,000.0,037.4,030.6,13.2,0000.0,0007.39,0003.38,0002.85
2023-10-11 14:15:00,SystemResetWarning,0817.1,5.01,000.00,029.0,027.6,000.0,037.4,030.6,13.5,0000.0,0009.17,0003.35,0002.81
2023-10-11 14:16:00,SystemResetWarning,0817.1,4.99,000.00,029.0,027.6,000.0,037.4,030.6,13.6,0000.0,0009.73,0003.33,0002.78
2023-10-11 14:17:00,SystemResetWarning,0817.1,4.99,000.00,029.0,027.6,000.0,037.4,030.7,13.3,0000.0,0009.71,0003.33,0002.74
2023-10-11 14:18:00,SystemResetWarning,0817.1,5.00,000.00,029.0,027.6,000.0,037.4,030.7,13.5,0000.0,0009.61,0003.27,0002.67
2023-10-11 14:19:00,SystemResetWarning,0817.1,5.00,000.00,029.0,027.6,000.0,037.4,030.7,13.6,0000.0,0009.50,0003.22,0002.61
2023-10-11 14:20:00,SystemResetWarning,0817.1,5.00,000.00,029.0,027.7,000.0,037.4,030.7,13.7,0000.0,0009.43,0003.18,0002.57
2023-10-11 14:21:00,SystemResetWarning,0817.1,5.00,000.00,029.0,027.7,000.0,037.4,030.7,13.7,0000.0,0009.40,0003.14,0002.52
2023-10-11 14:22:00,SystemResetWarning,0817.1,5.01,000.00,029.0,027.7,000.0,037.4,030.7,13.7,0000.0,0009.41,0003.14,0002.49
2023-10-11 14:23:00,SystemResetWarning,0817.1,5.00,000.00,029.1,027.7,000.0,037.4,030.7,13.8,0000.0,0009.32,0003.12,0002.49
2023-10-11 14:24:00,SystemResetWarning,0817.1,5.00,000.00,029.1,027.7,000.0,037.5,030.7,13.9,0000.0,0008.47,0003.13,0002.50
2023-10-11 14:25:00,SystemResetWarning,0817.1,5.00,000.00,029.1,027.7,000.0,037.5,030.7,13.8,0000.0,0008.37,0003.14,0002.52
2023-10-11 14:26:00,SystemResetWarning,0817.2,5.01,000.00,029.1,027.8,000.0,037.5,030.8,13.8,0000.0,0006.33,0003.18,0002.55
2023-10-11 14:27:00,SystemResetWarning,0817.1,5.00,000.00,029.1,027.8,000.0,037.5,030.8,13.7,0000.0,0006.12,0003.21,0002.58
2023-10-11 14:28:00,SystemResetWarning,0817.1,5.00,000.00,029.1,027.8,000.0,037.5,030.8,13.5,0000.0,0006.88,0003.23,0002.62
2023-10-11 14:29:00,SystemResetWarning,0817.1,5.00,000.00,029.2,027.8,000.0,037.5,030.8,13.4,0000.0,0007.10,0003.23,0002.65
2023-10-11 14:30:00,SystemResetWarning,0817.1,5.00,000.00,029.2,027.8,000.0,037.5,030.8,13.4,0000.0,0007.15,0003.26,0002.69
2023-10-11 14:31:00,SystemResetWarning,0817.1,5.00,000.00,029.2,027.8,000.0,037.6,030.8,13.5,0000.0,0007.14,0003.27,0002.71
2023-10-11 14:32:00,SystemResetWarning,0817.1,4.99,000.00,029.2,027.9,000.0,037.6,030.8,13.6,0000.0,0007.17,0003.28,0002.74
2023-10-11 14:33:00,SystemResetWarning,0817.1,5.00,000.00,029.2,027.9,000.0,037.6,030.9,13.7,0000.0,0007.29,0003.32,0002.78
2023-10-11 14:34:00,SystemResetWarning,0817.1,5.00,000.00,029.2,027.9,000.0,037.6,030.9,13.8,0000.0,0007.26,0003.34,0002.81
2023-10-11 14:35:00,SystemResetWarning,0817.1,5.00,000.00,029.2,027.9,000.0,037.6,030.9,13.6,0000.0,0007.47,0003.33,0002.83
2023-10-11 14:36:00,SystemResetWarning,0817.1,5.00,000.00,029.2,027.9,000.0,037.6,030.9,13.8,0000.0,0007.53,0003.35,0002.84
2023-10-11 14:37:00,SystemResetWarning,0817.1,5.01,000.00,029.3,027.9,000.0,037.6,030.9,13.5,0000.0,0007.47,0003.34,0002.85
2023-10-11 14:38:00,SystemResetWarning,0817.1,5.01,000.00,029.3,027.9,000.0,037.6,030.9,13.4,0000.0,0006.95,0003.36,0002.85
2023-10-11 14:39:00,SystemResetWarning,0817.1,5.00,000.00,029.3,027.9,000.0,037.6,030.9,13.7,0000.0,0006.20,0003.33,0002.85
2023-10-11 14:40:00,SystemResetWarning,0817.2,4.99,000.00,029.3,028.0,000.0,037.6,030.9,13.7,0000.0,0005.73,0003.31,0002.85
2023-10-11 14:41:00,SystemResetWarning,0817.2,4.99,000.00,029.3,028.0,000.0,037.7,030.9,13.4,0000.0,0005.78,0003.31,0002.83
2023-10-11 14:42:00,SystemResetWarning,0817.2,5.00,000.00,029.3,028.0,000.0,037.7,031.0,13.5,0000.0,0005.77,0003.31,0002.84
2023-10-11 14:43:00,SystemResetWarning,0817.2,5.00,000.00,029.3,028.0,000.0,037.7,031.0,13.5,0000.0,0005.87,0003.33,0002.84
2023-10-11 14:44:00,SystemResetWarning,0817.2,5.00,000.00,029.3,028.0,000.0,037.7,031.0,13.3,0000.0,0007.03,0003.31,0002.84
2023-10-11 14:45:00,SystemResetWarning,0817.1,5.00,000.00,029.3,028.0,000.0,037.7,031.0,13.5,0000.0,0007.18,0003.32,0002.84
2023-10-11 14:46:00,SystemResetWarning,0817.1,5.00,000.00,029.3,028.0,000.0,037.7,031.0,13.6,0000.0,0006.75,0003.31,0002.83
2023-10-11 14:47:00,SystemResetWarning,0817.1,4.99,000.00,029.3,028.0,000.0,037.7,031.0,13.4,0000.0,0006.71,0003.31,0002.84
2023-10-11 14:48:00,SystemResetWarning,0817.1,5.01,000.00,029.4,028.0,000.0,037.7,031.0,13.3,0000.0,0007.08,0003.30,0002.86
2023-10-11 14:49:00,SystemResetWarning,0817.1,5.01,000.00,029.4,028.0,000.0,037.7,031.0,13.2,0000.0,0006.95,0003.28,0002.87
2023-10-11 14:50:00,SystemResetWarning,0817.1,5.00,000.00,029.4,028.1,000.0,037.8,031.0,13.2,0000.0,0007.29,0003.31,0002.89
2023-10-11 14:51:00,SystemResetWarning,0817.1,5.00,000.00,029.4,028.1,000.0,037.8,031.0,13.0,0000.0,0007.73,0003.34,0002.89
2023-10-11 14:52:00,SystemResetWarning,0817.1,5.00,000.00,029.4,028.1,000.0,037.8,031.0,13.1,0000.0,0008.13,0003.37,0002.89
2023-10-11 14:53:00,SystemResetWarning,0817.1,5.01,000.00,029.4,028.1,000.0,037.8,031.0,13.2,0000.0,0008.52,0003.40,0002.89
2023-10-11 14:54:00,SystemResetWarning,0817.1,5.00,000.00,029.4,028.1,000.0,037.8,031.0,13.2,0000.0,0008.52,0003.41,0002.90
2023-10-11 14:55:00,SystemResetWarning,0817.1,4.99,000.00,029.4,028.1,000.0,037.8,031.1,13.2,0000.0,0008.22,0003.44,0002.92
2023-10-11 14:56:00,SystemResetWarning,0817.1,4.99,000.00,029.4,028.1,000.0,037.8,031.1,13.3,0000.0,0008.20,0003.47,0002.96
2023-10-11 14:57:00,SystemResetWarning,0817.1,5.01,000.00,029.5,028.1,000.0,037.8,031.1,13.4,0000.0,0008.69,0003.52,0003.02
2023-10-11 14:58:00,SystemResetWarning,0817.1,5.01,000.00,029.5,028.1,000.0,037.8,031.1,13.3,0000.0,0009.16,0003.59,0003.06
2023-10-11 14:59:00,SystemResetWarning,0817.1,5.00,000.00,029.5,028.1,000.0,037.8,031.1,13.3,0000.0,0009.06,0003.63,0003.09
